Location: Mentone
(34.5413°N, 85.5351°W)
Time: 22:08:44
(UTC-05:00)

Tiros 1 despin weight - All Passes

Search period start: 23 June 2018 00:00
Search period end: 03 July 2018 00:00
Orbit: 594 x 644 km, 48.2° (Epoch: 23 June)

Date Brightness Start Highest point End Pass type
(mag) Time Alt. Az. Time Alt. Az. Time Alt. Az.
23 Jun - 01:21:24 10° NW 01:25:31 29° NNE 01:29:37 10° E visible
23 Jun - 03:02:43 10° WNW 03:07:22 63° SW 03:11:59 10° SE visible
23 Jun - 18:48:26 10° SSW 18:52:44 43° SE 18:57:06 10° ENE daylight
23 Jun - 20:30:08 10° W 20:34:22 36° NNW 20:38:41 10° NE visible
23 Jun - 22:14:07 10° NW 22:17:02 16° N 22:19:56 10° NNE visible
23 Jun - 23:56:52 10° NNW 00:00:04 18° NNE 00:03:15 10° NE visible
24 Jun - 01:37:59 10° NW 01:42:32 47° NNE 01:47:04 10° ESE visible
24 Jun - 03:19:54 10° WNW 03:23:59 30° SW 03:28:03 10° SSE visible
24 Jun - 17:26:20 10° SSE 17:28:24 13° SE 17:30:29 10° E daylight
24 Jun - 19:04:51 10° SW 19:09:25 89° SE 19:14:04 10° NE daylight
24 Jun - 20:47:45 10° WNW 20:51:29 24° NNW 20:55:15 10° NNE visible
24 Jun - 22:31:43 10° NW 22:34:23 15° N 22:37:05 10° NE visible
25 Jun - 00:13:31 10° NNW 00:17:18 23° NNE 00:21:05 10° ENE visible
25 Jun - 01:54:40 10° NW 01:59:24 88° NE 02:04:05 10° SE visible
25 Jun - 03:38:01 10° W 03:40:28 14° SW 03:42:54 10° SSW night (unlit)
25 Jun - 17:41:00 10° SSW 17:44:51 28° SE 17:48:47 10° ENE daylight
25 Jun - 19:21:51 10° WSW 19:26:15 48° NNW 19:30:46 10° NE daylight
25 Jun - 21:05:34 10° NW 21:08:43 18° NNW 21:11:54 10° NNE visible
25 Jun - 22:48:51 10° NNW 22:51:45 16° N 22:54:40 10° NE visible
26 Jun - 00:30:05 10° NW 00:34:25 35° NNE 00:38:44 10° E visible
26 Jun - 02:11:36 10° WNW 02:16:06 45° SW 02:20:34 10° SSE visible
26 Jun - 17:57:00 10° SW 18:01:27 60° SE 18:05:59 10° ENE daylight
26 Jun - 19:39:16 10° W 19:43:17 29° NNW 19:47:21 10° NE daylight
26 Jun - 21:23:20 10° NW 21:26:03 15° N 21:28:48 10° NNE visible
26 Jun - 23:05:37 10° NNW 23:09:03 20° NNE 23:12:30 10° ENE visible
27 Jun - 00:46:42 10° NW 00:51:21 61° NE 00:56:01 10° ESE visible
27 Jun - 02:29:03 10° W 02:32:38 22° SW 02:36:13 10° S night (unlit)
27 Jun - 16:33:58 10° S 16:37:02 18° SE 16:40:09 10° E daylight
27 Jun - 18:13:42 10° WSW 18:18:12 69° NW 18:22:49 10° NE daylight
27 Jun - 19:57:00 10° WNW 20:00:26 20° NNW 20:03:56 10° NNE daylight
27 Jun - 21:40:43 10° NNW 21:43:25 15° N 21:46:08 10° NE visible
27 Jun - 23:22:12 10° NW 23:26:14 27° NNE 23:30:16 10° E visible
28 Jun - 01:03:28 10° WNW 01:08:09 69° SW 01:12:48 10° SE visible
28 Jun - 16:49:23 10° SSW 16:53:33 39° SE 16:57:48 10° ENE daylight
28 Jun - 18:30:54 10° W 18:35:07 38° NNW 18:39:27 10° NE daylight
28 Jun - 20:14:50 10° NW 20:17:44 16° N 20:20:39 10° NNE daylight
28 Jun - 21:57:41 10° NNW 22:00:46 17° NNE 22:03:52 10° NE visible
28 Jun - 23:38:47 10° NW 23:43:16 44° NNE 23:47:46 10° ESE visible
29 Jun - 01:20:34 10° WNW 01:24:47 33° SW 01:28:58 10° SSE visible
29 Jun - 15:27:52 10° SE 15:29:15 11° SE 15:30:39 10° ESE daylight
29 Jun - 17:05:43 10° SW 17:10:13 82° SE 17:14:49 10° NE daylight
29 Jun - 18:48:28 10° WNW 18:52:12 24° NNW 18:56:00 10° NNE daylight
29 Jun - 20:32:28 10° NW 20:35:06 15° N 20:37:43 10° NNE visible
29 Jun - 22:14:20 10° NNW 22:18:01 22° NNE 22:21:42 10° ENE visible
29 Jun - 23:55:27 10° NW 00:00:09 81° NE 00:04:51 10° SE visible
30 Jun - 01:38:28 10° W 01:41:16 16° SW 01:44:04 10° SSW night (unlit)
30 Jun - 15:42:01 10° S 15:45:41 25° SE 15:49:25 10° ENE daylight
30 Jun - 17:22:38 10° WSW 17:27:02 52° NNW 17:31:31 10° NE daylight
30 Jun - 19:06:16 10° WNW 19:09:26 18° NNW 19:12:37 10° NNE daylight
30 Jun - 20:49:40 10° NNW 20:52:27 16° N 20:55:15 10° NE visible
30 Jun - 22:30:54 10° NW 22:35:08 33° NNE 22:39:23 10° E visible
01 Jul - 00:12:20 10° WNW 00:16:52 50° SW 00:21:24 10° SSE visible
01 Jul - 15:57:55 10° SW 16:02:16 54° SE 16:06:43 10° ENE daylight
01 Jul - 17:40:01 10° W 17:44:01 30° NNW 17:48:06 10° NE daylight
01 Jul - 19:24:04 10° NW 19:26:45 15° N 19:29:28 10° NNE daylight
01 Jul - 21:06:27 10° NNW 21:09:45 19° NNE 21:13:05 10° ENE visible
01 Jul - 22:47:30 10° NW 22:52:06 57° NNE 22:56:43 10° ESE visible
02 Jul - 00:29:40 10° WNW 00:33:26 24° SW 00:37:12 10° S visible
02 Jul - 14:35:08 10° SSE 14:37:53 16° SE 14:40:40 10° E daylight
02 Jul - 16:14:31 10° WSW 16:19:00 74° NW 16:23:34 10° NE daylight
02 Jul - 17:57:43 10° WNW 18:01:10 21° NNW 18:04:40 10° NNE daylight
02 Jul - 19:41:31 10° NNW 19:44:07 15° N 19:46:44 10° NE daylight
02 Jul - 21:23:03 10° NW 21:26:57 26° NNE 21:30:53 10° E visible
02 Jul - 23:04:14 10° NW 23:08:54 76° SW 23:13:35 10° SE visible
